YAOGAN 20C

导读

YAOGAN 20C(遥感二十号C星)是中国于2014年8月9日发射的遥感卫星。作为我国遥感卫星系列的重要组成部分,它主要承担地球观测任务,可获取空间遥感信息,服务于国土资源勘察、农业估产、灾害监测、地理测绘等多个领域,同时也为科学研究提供数据支撑,助力我国空间对地观测体系的完善,推动遥感应用技术持续发展。

基本信息
目录编号:
40111
目录名称:
YAOGAN 20C
国际标识:
2014-047C
轨道中心:
EARTH
卫星名称:
YAOGAN 20C
卫星全名:
--
卫星状态:
在轨 (已飞行4416 天)
发射日期:
2014-08-09 UTC
国别 :
中国 (CN)
星等 :
--
该卫星已列入 空间交会检测服务 Space Conjunction Data Service (SCDS) ,当前飞行风险评估等级: 无高风险
轨道信息
数据来源 国际轨道数据 AOE轨道数据
星历时间 2026-09-11T05:36:35+0800
9小时前
查看轨道信息
2026-09-10T23:00:00+0800
16小时前
查看轨道信息
半长轴 7467.166km 7467.165km
偏心率 0.039761 0.039784
轨道倾角 63.378° 63.378°
近地点辐角 15.561° 15.551°
升交点赤经 158.682° 159.393°
平近点角 345.723° 91.770°
近地点 792.127km 791.954km
远地点 1385.931km 1386.102km
周期 107.027分钟 107.027分钟
每日圈数 13.454547 13.45455
详细信息
使用方式:
暂无
2D轨道图
3D轨道图
轨道高度分析图
轨道倾角分析图
轨道综合分析图
查看轨道综合分析图
与全量物体交会距离演化趋势
与全量物体交会风险概率演化趋势